Dewpoint
27 16 18 23 25 25 26 25 24 24 25 26 24 20 32 41 42 44 47 47 49 49 53 54 55 56 55 55 55 54 53 53 52 50 49 47 46 43 43 43 42 42 42 42
16 11 23 26 24 23 22 22 20 24 26 23 20 21 26 33 42 43 44 46 49 50 51 53 55 55 54 53 53 51 51 51 51 50 47 46 44 43 43 43 41 42 41 42
15 16 24 22 17 20 19 20 21 24 26 24 19 16 19 23 27 27 33 44 49 50 51 51 51 51 51 51 51 50 47 47 47 46 44 42 42 41 41 41 41 41 41 42
12 20 21 18 11 23 12 23 25 26 18 15 19 11 17 18 21 23 28 39 43 51 51 51 50 50 52 52 53 53 52 48 45 44 44 44 43 42 41 41 41 41 41 41
0 15 20 10 11 24 15 23 25 25 19 17 17 14 17 20 18 18 20 30 47 50 51 51 51 51 52 53 54 54 54 50 44 43 43 42 41 41 41 41 40 40 40 41
14 19 23 17 23 21 22 18 14 19 18 14 17 16 17 18 20 18 16 17 23 42 50 52 52 53 53 54 54 54 53 52 49 43 42 41 41 40 40 40 39 40 40 40
8 5 10 21 15 19 21 12 0 -4 6 10 17 16 16 21 22 21 19 17 18 21 27 42 51 53 53 52 53 53 53 53 52 49 44 42 42 41 40 40 40 39 40 40
4 1 6 16 21 21 20 17 8 -5 2 9 15 12 17 19 19 20 21 19 19 20 22 24 27 32 49 54 54 53 53 51 51 52 52 49 44 42 42 41 41 40 40 40
4 1 11 19 22 22 17 17 22 15 18 9 12 13 18 20 21 23 23 22 20 22 24 24 28 34 38 41 48 54 54 53 52 51 50 51 51 49 47 44 43 41 41 41
12 6 10 12 13 13 21 22 4 10 5 4 5 6 16 19 21 23 22 22 23 25 26 26 27 29 33 37 41 44 47 52 53 53 51 50 49 49 49 49 49 48 45 42
18 13 6 8 4 5 14 8 9 12 15 4 4 5 18 21 24 24 24 25 25 26 26 27 27 28 29 31 34 38 41 43 45 46 51 50 49 49 50 50 49 47 47 46
18 15 8 6 9 12 19 12 8 5 3 9 7 8 23 24 25 25 25 25 25 25 25 25 26 28 28 28 29 31 34 36 42 44 45 45 47 50 49 47 47 47 48 48
13 7 3 5 9 13 9 15 13 12 12 8 7 8 26 26 25 26 24 22 21 20 21 22 22 23 26 26 26 26 28 31 34 37 41 43 44 46 48 48 48 47 46 46
18 13 4 5 6 4 5 9 14 11 11 9 9 10 23 26 24 23 26 21 19 18 19 19 19 19 20 21 21 23 23 27 30 32 35 38 41 43 44 48 49 48 48 48
21 14 15 13 12 13 13 14 14 12 12 10 11 15 23 24 23 22 24 19 16 16 17 17 18 18 19 20 21 21 22 24 27 28 29 32 37 40 42 43 45 48 49 49
24 15 19 18 18 17 15 15 14 16 15 14 15 20 21 22 21 17 20 16 15 16 17 17 18 19 19 20 20 21 22 24 25 26 28 30 33 36 38 40 42 44 47 48
18 18 16 19 14 13 11 19 19 23 23 24 18 20 19 17 15 16 17 16 16 16 17 17 18 18 19 20 20 21 22 23 24 25 27 29 31 33 35 38 40 41 44 46
19 18 16 18 14 11 21 24 24 22 22 21 20 18 18 16 16 18 16 16 16 16 17 17 18 18 19 21 21 21 22 23 23 24 26 27 30 32 34 35 37 39 43 44
19 20 19 16 13 13 23 22 23 22 18 20 17 15 15 16 16 18 16 17 16 17 17 17 18 19 20 20 20 20 21 21 22 22 23 25 27 27 29 32 35 36 39 41
19 19 19 14 14 10 20 20 19 21 19 18 15 15 15 15 8 11 16 17 16 16 17 17 18 19 19 18 19 19 19 20 21 22 23 24 25 26 27 30 33 35 37 39
17 17 17 16 15 16 17 17 18 19 16 17 16 16 15 14 15 16 17 16 16 17 17 18 18 17 17 18 18 19 19 20 21 23 24 25 26 26 26 29 32 35 35 37
20 19 17 16 15 16 16 17 18 16 15 16 16 16 16 16 15 15 15 15 16 16 16 17 18 17 18 18 18 18 18 19 21 22 23 24 25 25 26 27 29 34 34 35
22 22 22 22 19 17 15 15 16 17 16 16 16 17 16 15 15 15 15 15 16 16 16 17 17 17 16 17 18 18 18 19 20 21 22 22 23 25 26 27 31 32 33 35
21 19 21 20 17 16 16 15 16 16 16 16 16 16 15 15 15 15 15 14 15 15 16 16 16 15 15 16 17 18 18 19 20 21 22 23 24 25 26 27 28 32 33 34
18 19 16 17 17 16 16 15 15 15 14 13 14 14 13 13 12 12 12 12 12 13 14 13 13 13 14 15 16 17 18 19 22 21 22 23 24 26 28 31 32 34 34 35
15 13 14 13 16 15 16 15 13 11 11 11 13 10 11 11 11 11 11 11 11 12 11 11 11 12 13 14 15 16 17 19 21 21 21 22 25 27 29 30 32 35 36 36
Wind_Speed
4 4 12 13 8 9 11 8 12 10 4 9 11 9 15 14 16 11 4 10 9 5 7 5 7 14 12 11 11 11 9 8 10 8 9 7 8 6 6 9 11 13 13 12
5 5 7 11 3 9 5 7 11 12 4 6 9 20 16 21 15 13 19 10 3 3 6 6 8 7 9 8 11 10 13 11 11 9 6 5 7 7 8 11 11 11 12 13
2 4 10 8 7 18 3 11 13 7 11 1 9 27 20 12 12 22 17 13 2 5 6 8 7 6 6 8 15 18 11 11 8 8 9 5 5 2 6 6 8 11 14 16
2 5 10 11 7 6 9 4 6 7 5 8 12 14 18 19 25 26 26 22 12 6 6 6 4 6 5 8 12 11 13 6 10 12 14 13 12 14 9 10 9 12 12 13
6 9 11 11 11 5 7 10 3 3 7 6 20 11 16 18 26 29 26 25 17 4 6 5 8 8 6 7 3 5 10 9 7 13 12 13 13 11 6 7 12 12 11 12
5 3 1 5 11 4 15 2 4 4 3 13 8 3 18 15 16 24 30 26 22 18 9 1 4 5 6 2 4 4 4 6 7 8 12 14 15 11 10 9 12 13 12 13
7 2 4 4 9 6 19 11 5 6 8 2 9 12 6 11 16 15 19 25 25 22 20 17 9 6 7 8 6 5 6 7 7 11 10 13 15 13 14 14 14 13 13 13
6 7 9 9 4 5 9 7 4 3 2 4 8 4 5 7 12 16 17 19 24 27 22 21 20 16 14 9 7 10 12 12 12 13 14 12 11 12 13 14 14 15 15 15
6 5 2 3 2 2 4 7 1 3 1 1 4 2 4 24 29 30 28 28 28 27 25 24 23 21 18 17 14 9 7 11 12 14 12 13 11 14 13 12 10 12 14 15
1 6 2 3 1 5 5 1 4 5 3 2 2 2 4 17 21 21 26 25 24 24 28 28 27 26 25 22 20 19 16 14 10 9 8 10 12 13 15 14 17 16 16 15
1 1 6 2 3 2 2 3 6 4 2 2 3 3 4 5 9 14 18 20 22 24 23 23 24 25 25 25 25 23 22 18 16 12 10 10 11 11 13 14 16 17 15 17
0 2 5 5 5 3 2 3 4 3 2 2 3 4 2 2 7 12 16 18 19 20 23 23 23 23 25 26 26 24 23 23 20 17 14 11 9 10 13 14 15 14 18 19
2 2 8 5 1 2 3 0 3 6 2 8 5 2 4 9 12 13 15 15 16 19 22 23 25 27 25 24 24 24 23 23 22 20 17 14 12 10 9 12 15 17 18 16
2 3 8 11 10 2 11 5 7 4 6 5 10 7 1 9 14 19 15 17 19 20 21 23 25 25 24 24 26 26 25 22 23 23 21 19 18 15 14 12 12 13 16 17
2 5 5 13 16 12 16 19 11 14 12 9 3 4 5 11 14 15 11 16 20 24 27 26 27 26 26 28 29 28 26 25 25 24 22 21 20 18 16 15 12 12 13 15
2 4 3 9 11 6 12 14 13 11 8 12 3 3 7 7 12 17 14 19 22 24 24 24 24 26 27 28 28 28 29 31 30 28 26 22 21 21 19 17 16 14 13 13
3 3 3 7 6 12 10 2 2 5 7 2 3 3 11 12 16 13 11 17 19 22 23 25 25 25 25 26 26 27 29 28 28 28 29 27 25 24 21 19 18 16 14 13
6 6 3 8 8 5 3 8 7 14 8 7 7 7 6 11 16 3 12 16 19 22 23 23 23 25 24 24 23 26 26 26 26 26 27 27 27 26 27 23 21 20 15 15
11 9 5 4 4 6 4 3 2 1 2 6 4 8 9 14 12 11 17 19 15 16 17 17 20 22 24 23 24 24 25 25 26 25 26 26 28 29 29 29 25 21 19 17
7 4 6 3 4 6 3 1 4 3 6 3 5 7 12 13 11 2 21 18 17 16 14 17 19 18 18 21 20 22 22 23 25 27 29 28 27 28 28 28 29 24 21 22
6 3 13 10 6 5 3 8 3 4 2 2 4 5 7 4 4 16 19 20 17 16 18 17 16 17 19 20 22 25 26 25 27 28 28 29 28 28 28 28 27 24 23 23
8 7 7 4 5 11 8 1 2 2 3 4 4 4 6 9 11 12 13 15 18 22 25 20 18 18 19 18 19 23 24 25 26 28 29 31 30 26 24 27 28 24 23 23
6 4 3 4 3 5 8 9 5 3 2 2 3 5 6 8 11 13 15 16 16 17 18 18 21 24 22 20 20 23 25 26 27 29 28 29 30 30 28 27 26 22 21 20
1 3 1 2 4 6 7 6 5 5 3 2 4 6 7 9 11 13 13 15 16 16 17 17 17 19 23 24 25 25 26 27 27 28 29 29 28 29 27 24 22 18 20 18
1 5 1 2 5 7 4 4 3 2 4 5 6 5 7 10 12 12 15 16 16 18 18 18 19 20 22 23 24 25 27 29 29 29 29 26 25 28 27 24 20 19 21 20
4 1 2 2 2 0 0 3 3 4 6 8 9 12 8 9 13 14 15 15 16 18 19 19 20 22 23 23 24 24 23 25 28 30 29 27 27 27 23 23 20 19 26 23
Wind_Direction
3 41 2 331 317 273 286 284 295 299 330 344 348 1 20 4 21 37 38 157 176 170 172 137 106 130 141 152 155 148 168 165 162 165 166 175 190 192 206 214 216 208 201 194
16 31 334 311 306 318 296 320 348 311 339 16 356 38 35 24 10 20 23 338 189 189 130 115 167 146 143 156 145 168 160 174 186 185 174 162 173 199 207 217 215 205 203 200
355 329 328 347 347 359 338 7 333 295 318 63 359 44 37 16 28 34 13 13 80 174 119 108 101 105 119 169 174 161 140 153 176 175 144 104 120 128 207 218 215 214 209 207
299 325 348 342 11 359 351 349 315 329 32 35 7 53 18 6 33 29 12 7 354 152 97 97 137 163 224 230 206 162 136 159 182 181 189 192 199 208 215 213 212 216 212 213
348 342 357 355 345 334 300 333 8 347 69 46 10 69 357 15 20 10 13 23 22 41 108 141 170 179 213 242 214 136 151 175 188 189 201 213 219 216 196 202 215 218 220 219
282 299 353 298 319 315 311 58 38 42 57 44 351 60 27 22 3 360 10 16 21 21 13 248 215 234 251 201 200 137 181 190 197 220 206 222 232 228 214 209 217 218 217 219
329 2 340 345 347 358 12 39 22 39 34 46 340 69 54 12 358 355 356 2 6 12 19 15 354 262 246 235 220 229 218 205 209 220 234 229 234 231 236 230 226 224 223 224
359 344 11 353 42 322 359 41 51 97 23 315 333 69 13 356 351 3 18 13 14 13 12 16 9 1 347 320 235 213 228 244 214 229 236 223 224 236 237 240 233 231 230 227
345 297 340 39 17 18 349 30 293 92 82 50 359 57 225 3 7 11 14 14 13 11 14 16 19 16 12 7 7 337 244 233 236 246 238 242 236 239 244 238 230 235 234 233
299 298 318 313 143 53 85 110 18 20 25 56 0 100 335 358 357 5 27 23 16 22 21 18 20 18 18 15 11 19 13 357 334 291 254 240 239 237 237 239 242 243 246 236
107 220 294 339 24 303 49 60 67 111 65 19 323 234 6 2 8 32 29 23 15 12 20 18 14 14 15 19 20 19 15 11 5 5 343 304 283 263 251 243 243 237 242 241
328 169 293 303 304 253 227 147 128 132 207 160 194 241 136 82 32 33 27 18 14 15 9 9 12 13 15 13 10 10 9 10 2 349 349 341 315 297 288 273 254 243 234 232
197 300 318 2 329 325 288 38 109 102 105 225 196 213 80 21 16 17 27 17 15 11 9 8 9 7 5 4 2 1 359 357 353 353 346 340 341 328 298 275 268 269 262 248
155 211 218 251 270 220 288 229 202 183 206 218 223 154 3 23 14 3 5 6 8 8 6 3 3 360 357 355 353 352 350 351 348 345 342 340 342 332 323 305 282 261 249 244
136 255 228 262 275 270 268 277 255 227 223 232 284 181 8 1 357 357 5 5 5 3 2 360 354 351 350 350 347 345 344 344 343 338 336 334 328 323 318 316 307 285 265 247
17 274 303 283 281 289 279 277 269 250 250 250 213 129 1 344 352 3 16 7 1 356 355 353 349 348 347 345 341 338 338 337 337 333 328 327 326 322 317 313 310 303 283 257
269 231 341 284 339 314 286 309 98 117 67 342 208 60 5 346 347 355 21 7 356 351 349 345 344 342 338 338 334 334 331 329 329 326 323 324 324 319 318 313 303 294 283 270
194 180 218 277 328 256 107 40 116 111 80 60 85 27 355 318 305 324 41 9 357 351 343 340 337 333 332 330 334 332 330 327 324 321 319 320 320 318 315 312 307 297 280 266
204 183 230 249 245 300 200 45 93 57 92 37 9 339 335 331 314 172 17 8 346 335 328 326 325 324 321 328 330 329 328 327 326 323 320 319 316 312 310 304 300 297 288 274
129 164 208 188 243 274 114 179 357 194 237 38 7 344 341 344 352 301 342 337 334 333 327 327 322 316 320 321 323 323 322 323 319 320 317 311 308 303 298 294 293 293 284 270
129 182 224 236 254 274 341 309 310 190 197 23 9 353 345 345 291 303 321 329 334 333 329 331 327 326 325 328 332 329 327 325 321 314 312 309 303 301 296 292 287 282 285 272
196 193 207 186 229 263 349 313 226 71 68 31 18 356 326 320 315 319 323 324 328 328 331 333 333 329 327 332 334 327 322 319 315 315 312 311 307 299 294 287 282 274 278 266
225 221 183 214 240 99 42 87 71 64 121 14 333 338 323 312 321 324 324 324 325 323 321 326 329 326 329 331 332 322 321 323 322 320 314 312 308 302 298 290 281 275 271 250
145 27 198 183 127 134 104 74 57 52 61 357 342 327 333 320 316 316 319 321 319 320 319 326 323 325 324 328 327 323 322 324 323 323 318 315 310 308 304 294 276 267 265 244
314 338 35 115 95 119 109 80 37 29 25 360 343 327 322 325 320 322 320 320 321 320 325 326 324 322 321 322 320 321 323 326 325 324 322 317 314 307 305 293 272 268 256 241
10 53 220 244 111 209 233 107 39 20 351 343 335 332 327 328 317 319 311 314 315 323 325 325 323 322 322 320 319 319 326 325 329 325 327 322 322 314 312 307 292 274 261 252